Location: Sternwarte auf dem Internationalen Platz Vogelsang IP
(50.5721°N, 6.4398°E)
Time: 22:31:54
(UTC+01:00)

Transit 2A Rocket - Pass Details

Date: 18 December 2025
Orbit: 581 x 903 km, 66.7° (Epoch: 12 January)

Event Time Altitude Azimuth Distance (km) Brightness Sun altitude
Rises 07:47:18 0° 203° (SSW) 3,312 8.4 -6.7°
Reaches altitude 10° 07:49:41 10° 200° (SSW) 2,427 7.7 -6.3°
Maximum altitude 07:55:16 63° 121° (ESE) 969 5.9 -5.6°
Drops below altitude 10° 08:01:12 10° 42° (NE) 2,578 7.9 -4.8°
Sets 08:03:46 0° 39° (NE) 3,533 8.5 -4.4°
